This is the latest recevied weather packets stored in our database for station/object N0ZJT. If no packets are shown the sender has not sent any weather packets the latest 1 day(s).
| Time | Temp. | Humidity | Pressure | Rain* | Wind** | Luminosity | Snow |
|---|---|---|---|---|---|---|---|
| 1778005950 | 15.56° C | 31% | 972.5 hPa | 0 mm | 2.68 m/s, 220° | - | - |
| 1778004982 | 15.56° C | 30% | 972.6 hPa | 0 mm | 1.79 m/s, 140° | - | - |
| 1778004142 | 15.56° C | 30% | 972.2 hPa | 0 mm | 1.79 m/s, 73° | - | - |
| 1778003182 | 15° C | 33% | 972.5 hPa | 0 mm | 2.68 m/s, 66° | - | - |
| 1778002342 | 14.44° C | 30% | 972.7 hPa | 0 mm | 3.13 m/s, 80° | - | - |
| 1778001382 | 13.89° C | 31% | 972.5 hPa | 0 mm | 1.79 m/s, 157° | - | - |
| 1778000542 | 13.33° C | 33% | 972.5 hPa | 0 mm | 2.24 m/s, 118° | - | - |
| 1777999582 | 13.33° C | 33% | 972.7 hPa | 0 mm | 1.34 m/s, 198° | - | - |
| 1777998742 | 12.78° C | 35% | 972.6 hPa | 0 mm | 1.34 m/s, 186° | - | - |
| 1777997782 | 12.78° C | 36% | 972.7 hPa | 0 mm | 0.89 m/s, 129° | - | - |
| 1777996942 | 12.22° C | 38% | 972.8 hPa | 0 mm | 2.24 m/s, 194° | - | - |
| 1777995982 | 11.67° C | 38% | 972.6 hPa | 0 mm | 2.24 m/s, 185° | - | - |
| 1777995142 | 10.56° C | 39% | 972.5 hPa | 0 mm | 1.34 m/s, 87° | - | - |
| 1777994182 | 10.56° C | 41% | 972.6 hPa | 0 mm | 0.89 m/s, 25° | - | - |
| 1777993342 | 10.56° C | 43% | 972.6 hPa | 0 mm | 0.45 m/s, 99° | - | - |
| 1777992382 | 10° C | 44% | 972.6 hPa | 0 mm | 1.79 m/s, 65° | - | - |
| 1777991542 | 10° C | 44% | 972.5 hPa | 0 mm | 1.79 m/s, 216° | - | - |
| 1777990582 | 9.44° C | 43% | 972.4 hPa | 0 mm | 0.45 m/s, 115° | - | - |
| 1777989742 | 9.44° C | 44% | 972.2 hPa | 0 mm | 0.89 m/s, 167° | - | - |
| 1777988782 | 10° C | 44% | 972.4 hPa | 0 mm | 1.34 m/s, 101° | - | - |
| 1777987942 | 9.44° C | 46% | 972.6 hPa | 0 mm | 1.79 m/s, 167° | - | - |
| 1777986982 | 9.44° C | 48% | 972.8 hPa | 0 mm | 0 m/s | - | - |
| 1777986142 | 9.44° C | 50% | 972.8 hPa | 0 mm | 0 m/s | - | - |
| 1777985182 | 8.89° C | 51% | 972.6 hPa | 0 mm | 0.89 m/s, 73° | - | - |
| 1777984342 | 8.33° C | 52% | 972.6 hPa | 0 mm | 0 m/s | - | - |
* Rain latest hour (hover to see other rain measurements)
** Current wind speed in m/s (hover to see current wind gust speed)